User: anonymous   Login
Location: Lone Wolf Observatory
(41.0360°N, 89.2260°W)
Time: 01:19:41
(UTC-06:00)
Language:

Cosmos 1378 Rocket - Orbit

View from above orbital plane
View from above orbital plane
View from above satellite
View from above satellite

Ground track
Ground track

The orbit data is extracted from the following two-line orbital elements,

1 13272U 82059B   14332.48388913  .00000799  00000-0  92666-4 0  9231
2 13272 082.5106 294.4237 0017320 316.8060 043.1796 14.84158810753675
Epoch (UTC): 28 November 2014 11:36:48
Eccentricity: 0.0017320
inclination: 82.5106°
perigee height: 604 km
apogee height: 628 km
right ascension of ascending node: 294.4237°
argument of perigee: 316.8060°
revolutions per day: 14.84158810
mean anomaly at epoch: 43.1796°
orbit number at epoch: 75367

The dashed part of the orbit path shows where the satellite is in the earth's shadow,  

DLR